WetterOnline ( https://www.wetteronline.de )

Wetter aktuell Schierke

Aktuelles Wetter: Wernigerode (240m)

6-stündlich | Neueste Meldungen
Ortszeit Temperatur Wetter
Fr, 22.11. 1:00 3.0° C bedeckt
Do, 21.11. 19:00 5.1° C bedeckt
Do, 21.11. 13:00 4.9° C bedeckt
Do, 21.11. 7:00 3.3° C bedeckt
Do, 21.11. 1:00 3.2° C bedeckt
Mi, 20.11. 19:00 3.0° C bedeckt
Mi, 20.11. 13:00 4.2° C bewölkt
Mi, 20.11. 7:00 0.6° C leicht bewölkt
Ortszeit Temperatur Wetter
Fr, 22.11. 2:00 2.7° C bedeckt
Fr, 22.11. 1:40 2.8° C bedeckt
Fr, 22.11. 1:30 2.9° C bedeckt
Fr, 22.11. 1:20 2.9° C bedeckt
Fr, 22.11. 1:10 3.0° C bedeckt
Fr, 22.11. 1:00 3.0° C bedeckt
Fr, 22.11. 0:40 3.1° C bedeckt
Fr, 22.11. 0:30 3.2° C bedeckt
Fr, 22.11. 0:00 3.3° C wolkig
Do, 21.11. 23:30 3.5° C Nebel
Do, 21.11. 23:00 4.0° C Nebel
Do, 21.11. 22:30 4.4° C Nebel
Ortszeit Relative Feuchte Sichtweite
Fr, 22.11. 1:00 99% 4.9 km
Do, 21.11. 19:00 97% 5.0 km
Do, 21.11. 13:00 96% 14 km
Do, 21.11. 7:00 97% 2.8 km
Do, 21.11. 1:00 91% 8 km
Mi, 20.11. 19:00 95% 5.0 km
Mi, 20.11. 13:00 84% 11 km
Mi, 20.11. 7:00 95% 25 km
Ortszeit Relative Feuchte Sichtweite
Fr, 22.11. 2:00 99% 6 km
Fr, 22.11. 1:40 99% -
Fr, 22.11. 1:30 99% 4.5 km
Fr, 22.11. 1:20 99% -
Fr, 22.11. 1:10 97% -
Fr, 22.11. 1:00 99% 4.9 km
Fr, 22.11. 0:40 99% -
Fr, 22.11. 0:30 97% 4.1 km
Fr, 22.11. 0:00 97% 1.9 km
Do, 21.11. 23:30 98% 0.5 km
Do, 21.11. 23:00 100% 0.2 km
Do, 21.11. 22:30 98% 0.2 km
Ortszeit Niederschlagsmenge Niederschlagsart
Fr, 22.11. 1:00 0.0 l/m2 in 6 Std. -
Do, 21.11. 19:00 0.0 l/m2 in 12 Std. -
Do, 21.11. 13:00 0.1 l/m2 in 6 Std. -
Do, 21.11. 7:00 0.2 l/m2 in 12 Std. -
Do, 21.11. 1:00 0.1 l/m2 in 6 Std. Regen
Mi, 20.11. 19:00 0.0 l/m2 in 12 Std. -
Mi, 20.11. 13:00 0.0 l/m2 in 6 Std. -
Mi, 20.11. 7:00 0.1 l/m2 in 12 Std. Regen
Ortszeit Niederschlagsmenge Niederschlagsart
Fr, 22.11. 2:00 0.0 l/m2 in 1 Std. -
Fr, 22.11. 1:40 keine Meldung -
Fr, 22.11. 1:30 0.0 l/m2 in 1 Std. -
Fr, 22.11. 1:20 keine Meldung -
Fr, 22.11. 1:10 keine Meldung -
Fr, 22.11. 1:00 0.0 l/m2 in 1 Std. -
Fr, 22.11. 0:40 keine Meldung -
Fr, 22.11. 0:30 0.0 l/m2 in 1 Std. -
Fr, 22.11. 0:00 0.0 l/m2 in 1 Std. -
Do, 21.11. 23:30 0.0 l/m2 in 1 Std. -
Do, 21.11. 23:00 0.0 l/m2 in 1 Std. -
Do, 21.11. 22:30 0.0 l/m2 in 1 Std. -
Ortszeit Stärke Spitze Richtung
km/h Bft. km/h Grad Sektor
Fr, 22.11. 1:00 2 1 11 330° NW
Do, 21.11. 19:00 4 1 22 10° N
Do, 21.11. 13:00 6 1 13 90° O
Do, 21.11. 7:00 0 0 7 - -
Do, 21.11. 1:00 0 0 11 - -
Mi, 20.11. 19:00 0 0 11 - -
Mi, 20.11. 13:00 7 2 11 50° NO
Mi, 20.11. 7:00 6 1 9 170° S
Ortszeit Stärke Spitze Richtung
km/h Bft. km/h Grad Sektor
Fr, 22.11. 2:00 0 0 4 - -
Fr, 22.11. 1:40 0 0 - 200° S
Fr, 22.11. 1:30 0 0 4 - -
Fr, 22.11. 1:20 0 0 - 10° N
Fr, 22.11. 1:10 2 1 - 40° NO
Fr, 22.11. 1:00 2 1 6 330° NW
Fr, 22.11. 0:40 4 1 - 310° NW
Fr, 22.11. 0:30 2 1 6 310° NW
Fr, 22.11. 0:00 0 0 7 - -
Do, 21.11. 23:30 2 1 6 310° NW
Do, 21.11. 23:00 4 1 11 310° NW
Do, 21.11. 22:30 6 1 11 300° NW
Ortszeit Untergrenze Bedeckung Gattung
total tief tief mittel hoch
Fr, 22.11. 1:00 3000 m 8/8 8/8 - - -
Do, 21.11. 19:00 60 m 8/8 8/8 - - -
Do, 21.11. 13:00 90 m 8/8 8/8 - - -
Do, 21.11. 7:00 150 m 8/8 8/8 - - -
Do, 21.11. 1:00 330 m 8/8 8/8 - - -
Mi, 20.11. 19:00 720 m 8/8 8/8 - - -
Mi, 20.11. 13:00 300 m 7/8 7/8 - - -
Mi, 20.11. 7:00 300 m 4/8 4/8 - - -
Ortszeit Bedeckungsgrad in Achtel und Wolkenuntergrenze
Fr, 22.11. 2:00 8(3300m) 8(4200m)
Fr, 22.11. 1:40 8(3300m) 8(4200m)
Fr, 22.11. 1:30 8(3300m) 8(4200m)
Fr, 22.11. 1:20 8(3300m) 8(4200m)
Fr, 22.11. 1:10 8(3000m) 8(4500m)
Fr, 22.11. 1:00 8(3000m) 8(4200m)
Fr, 22.11. 0:40 8(3300m) 8(4200m)
Fr, 22.11. 0:30 8(3300m) 8(4500m)
Fr, 22.11. 0:00 1(<30m) 8(3300m) 8(4500m)
Do, 21.11. 23:30 6(<30m) 8(3000m) 8(4800m)
Do, 21.11. 23:00 8(<30m) 8(3000m) 8(3600m)
Do, 21.11. 22:30 7(<30m) 8(3000m) 8(3600m)
Ortszeit Luftdruck NN (hPa) Tendenz (hPa in 3 Std.)
Fr, 22.11. 1:00 1009 - 0,1
Do, 21.11. 19:00 1009 - 0,3
Do, 21.11. 13:00 1011 - 1,7
Do, 21.11. 7:00 1013 - 1,4
Do, 21.11. 1:00 1016 - 1,2
Mi, 20.11. 19:00 1017 - 0,1
Mi, 20.11. 13:00 1019 - 1,1
Mi, 20.11. 7:00 1020 - 0,1
Ortszeit Luftdruck NN (hPa) Tendenz (hPa in 3 Std.)
Fr, 22.11. 2:00 1009 - 0,2
Fr, 22.11. 1:40 1009 keine Meldung
Fr, 22.11. 1:30 1009 - 0,2
Fr, 22.11. 1:20 1009 keine Meldung
Fr, 22.11. 1:10 1009 keine Meldung
Fr, 22.11. 1:00 1009 - 0,1
Fr, 22.11. 0:40 1009 keine Meldung
Fr, 22.11. 0:30 1009 - 0,3
Fr, 22.11. 0:00 1009 - 0,5
Do, 21.11. 23:30 1009 - 0,4
Do, 21.11. 23:00 1009 - 0,3
Do, 21.11. 22:30 1009 - 0,5
Ortszeit Schneehöhe (cm)
Fr, 22.11. 1:00 0
Do, 21.11. 19:00 0
Do, 21.11. 13:00 0
Do, 21.11. 7:00 0
Do, 21.11. 1:00 0
Mi, 20.11. 19:00 0
Mi, 20.11. 13:00 0
Mi, 20.11. 7:00 0
Ortszeit Schneehöhe (cm)
Fr, 22.11. 2:00 0
Fr, 22.11. 1:40 0
Fr, 22.11. 1:30 0
Fr, 22.11. 1:20 0
Fr, 22.11. 1:10 0
Fr, 22.11. 1:00 0
Fr, 22.11. 0:40 0
Fr, 22.11. 0:30 0
Fr, 22.11. 0:00 0
Do, 21.11. 23:30 0
Do, 21.11. 23:00 0
Do, 21.11. 22:30 0
Link zu dieser Seite / Seite empfehlen

Das Wetter in ...